| time (UTC) | temp F | wind direction | speed MPH | gust MPH | rain 1hr in | rain 24hr in | rain mn in | humidity % | barometer mb |
| 20260904105019 | 63 | 225 | 0.0 | 1.0 | 0.00 | 0.00 | 0.00 | 1011.2 | |
| 20260904104919 | 63 | 202 | 0.0 | 1.0 | 0.00 | 0.00 | 0.00 | 1011.0 | |
| 20260904104818 | 63 | 180 | 0.0 | 0.0 | 0.00 | 0.00 | 0.00 | 1011.0 | |
| 20260904104718 | 63 | 157 | 1.0 | 1.0 | 0.00 | 0.00 | 0.00 | 1011.0 | |
| 20260904104319 | 63 | 225 | 1.0 | 2.0 | 0.00 | 0.00 | 0.00 | 1011.0 | |
| 20260904104218 | 63 | 202 | 1.0 | 2.0 | 0.00 | 0.00 | 0.00 | 1011.0 | |
| 20260904104119 | 63 | 225 | 2.0 | 2.0 | 0.00 | 0.00 | 0.00 | 1011.0 | |
| 20260904103719 | 63 | 270 | 1.0 | 2.0 | 0.00 | 0.00 | 0.00 | 1011.0 | |
| 20260904103618 | 63 | 202 | 1.0 | 2.0 | 0.00 | 0.00 | 0.00 | 1010.9 | |
| 20260904102918 | 63 | 225 | 0.0 | 0.0 | 0.00 | 0.00 | 0.00 | 1011.2 | |
| 20260904102820 | 63 | 247 | 0.0 | 1.0 | 0.00 | 0.00 | 0.00 | 1011.0 | |
| 20260904102719 | 63 | 225 | 1.0 | 1.0 | 0.00 | 0.00 | 0.00 | 1011.0 | |
| 20260904102619 | 63 | 225 | 1.0 | 1.0 | 0.00 | 0.00 | 0.00 | 1011.3 | |
| 20260904101919 | 63 | 247 | 0.0 | 1.0 | 0.00 | 0.00 | 0.00 | 1010.9 | |
| 20260904101519 | 63 | 225 | 1.0 | 1.0 | 0.00 | 0.00 | 0.00 | 1010.9 | |
| 20260904100819 | 62 | 225 | 0.0 | 1.0 | 0.00 | 0.00 | 0.00 | 1011.0 | |
| 20260904100119 | 62 | 225 | 0.0 | 0.0 | 0.00 | 0.00 | 0.00 | 1011.0 | |
| 20260904095718 | 62 | 202 | 0.0 | 0.0 | 0.00 | 0.00 | 0.00 | 1011.0 | |
| 20260904095619 | 62 | 202 | 0.0 | 0.0 | 0.00 | 0.00 | 0.00 | 1011.0 | |
| 20260904095519 | 62 | 270 | 0.0 | 0.0 | 0.00 | 0.00 | 0.00 | 1011.0 | |
| 20260904095418 | 62 | 247 | 0.0 | 0.0 | 0.00 | 0.00 | 0.00 | 1010.9 | |
| 20260904095018 | 61 | 337 | 0.0 | 0.0 | 0.00 | 0.00 | 0.00 | 1011.1 | |
| 20260904094919 | 61 | 0 | 0.0 | 0.0 | 0.00 | 0.00 | 0.00 | 1011.0 | |
| 20260904094219 | 61 | 22 | 0.0 | 1.0 | 0.00 | 0.00 | 0.00 | 1010.9 | |
| 20260904092918 | 59 | 292 | 0.0 | 0.0 | 0.00 | 0.00 | 0.00 | 1011.1 | |
| 20260904092819 | 59 | 292 | 0.0 | 0.0 | 0.00 | 0.00 | 0.00 | 1010.9 | |
| 20260904092719 | 59 | 22 | 0.0 | 0.0 | 0.00 | 0.00 | 0.00 | 1011.1 | |
| 20260904092619 | 59 | 0 | 0.0 | 0.0 | 0.00 | 0.00 | 0.00 | 1011.0 | |
| 20260904091619 | 58 | 22 | 0.0 | 0.0 | 0.00 | 0.00 | 0.00 | 1010.8 | |
| 20260904091219 | 58 | 22 | 0.0 | 0.0 | 0.00 | 0.00 | 0.00 | 1010.9 | |
| 20260904090519 | 58 | 22 | 0.0 | 0.0 | 0.00 | 0.00 | 0.00 | 1011.0 | |
| 20260904090419 | 58 | 22 | 0.0 | 0.0 | 0.00 | 0.00 | 0.00 | 1011.0 | |
| 20260904090318 | 58 | 22 | 0.0 | 0.0 | 0.00 | 0.00 | 0.00 | 1011.0 | |
| 20260904084119 | 59 | 0 | 0.0 | 0.0 | 0.00 | 0.00 | 0.00 | 1010.9 | |
| 20260904084019 | 59 | 0 | 0.0 | 0.0 | 0.00 | 0.00 | 0.00 | 1011.0 | |
| 20260904083919 | 59 | 0 | 0.0 | 0.0 | 0.00 | 0.00 | 0.00 | 1011.1 | |
| 20260904083818 | 59 | 0 | 0.0 | 0.0 | 0.00 | 0.00 | 0.00 | 1011.1 | |
| 20260904083719 | 59 | 0 | 0.0 | 0.0 | 0.00 | 0.00 | 0.00 | 1011.0 | |
| 20260904083319 | 59 | 0 | 0.0 | 0.0 | 0.00 | 0.00 | 0.00 | 1011.0 | |
| 20260904083218 | 59 | 0 | 0.0 | 0.0 | 0.00 | 0.00 | 0.00 | 1011.0 | |
| 20260904082218 | 59 | 0 | 0.0 | 0.0 | 0.00 | 0.00 | 0.00 | 1010.9 | |
| 20260904081519 | 59 | 0 | 0.0 | 0.0 | 0.00 | 0.00 | 0.00 | 1011.0 | |
| 20260904081419 | 59 | 337 | 0.0 | 0.0 | 0.00 | 0.00 | 0.00 | 1011.0 | |
| 20260904080419 | 60 | 315 | 0.0 | 0.0 | 0.00 | 0.00 | 0.00 | 1011.1 | |
| 20260904080319 | 60 | 337 | 0.0 | 0.0 | 0.00 | 0.00 | 0.00 | 1011.2 | |
| 20260904075919 | 60 | 315 | 0.0 | 1.0 | 0.00 | 0.00 | 0.00 | 1011.1 | |
| 20260904074919 | 60 | 315 | 0.0 | 0.0 | 0.00 | 0.00 | 0.00 | 1011.2 | |
| 20260904073918 | 60 | 337 | 0.0 | 0.0 | 0.00 | 0.00 | 0.00 | 1011.1 | |
| 20260904073519 | 60 | 337 | 0.0 | 0.0 | 0.00 | 0.00 | 0.00 | 1011.2 | |
| 20260904073419 | 60 | 337 | 0.0 | 0.0 | 0.00 | 0.00 | 0.00 | 1011.2 | |
| 20260904073319 | 60 | 337 | 0.0 | 0.0 | 0.00 | 0.00 | 0.00 | 1011.1 | |
| 20260904073218 | 60 | 337 | 0.0 | 0.0 | 0.00 | 0.00 | 0.00 | 1011.1 | |
| 20260904073119 | 60 | 337 | 0.0 | 0.0 | 0.00 | 0.00 | 0.00 | 1011.2 | |
| 20260904071819 | 61 | 337 | 0.0 | 0.0 | 0.00 | 0.00 | 0.00 | 1010.9 | |
| 20260904071418 | 61 | 337 | 0.0 | 0.0 | 0.00 | 0.00 | 0.00 | 1011.1 | |
| 20260904071018 | 61 | 202 | 0.0 | 0.0 | 0.00 | 0.00 | 0.00 | 1010.9 | |
| 20260904070619 | 61 | 202 | 0.0 | 0.0 | 0.00 | 0.00 | 0.00 | 1011.2 | |
| 20260904070518 | 62 | 202 | 0.0 | 0.0 | 0.00 | 0.00 | 0.00 | 1010.9 | |
| 20260904070419 | 62 | 202 | 0.0 | 0.0 | 0.00 | 0.00 | 0.00 | 1011.1 | |
| 20260904065718 | 62 | 202 | 0.0 | 0.0 | 0.00 | 0.00 | 0.00 | 1011.3 | |
| 20260904065318 | 63 | 225 | 0.0 | 1.0 | 0.00 | 0.00 | 0.00 | 1011.0 | |
| 20260904064618 | 63 | 202 | 1.0 | 2.0 | 0.00 | 0.00 | 0.00 | 1010.9 | |
| 20260904063919 | 63 | 157 | 0.0 | 0.0 | 0.00 | 0.00 | 0.00 | 1011.0 | |
| 20260904063519 | 63 | 135 | 0.0 | 0.0 | 0.00 | 0.00 | 0.00 | 1011.2 | |
| 20260904063419 | 63 | 135 | 0.0 | 0.0 | 0.00 | 0.00 | 0.00 | 1011.2 | |
| 20260904063018 | 63 | 135 | 0.0 | 1.0 | 0.00 | 0.00 | 0.00 | 1011.2 | |
| 20260904062919 | 63 | 135 | 0.0 | 0.0 | 0.00 | 0.00 | 0.00 | 1011.1 | |
| 20260904062818 | 63 | 157 | 0.0 | 1.0 | 0.00 | 0.00 | 0.00 | 1011.0 | |
| 20260904062419 | 64 | 180 | 0.0 | 0.0 | 0.00 | 0.00 | 0.00 | 1010.9 | |
| 20260904062318 | 64 | 180 | 0.0 | 0.0 | 0.00 | 0.00 | 0.00 | 1010.9 | |
| 20260904062219 | 64 | 180 | 0.0 | 0.0 | 0.00 | 0.00 | 0.00 | 1010.9 | |
| 20260904061818 | 64 | 157 | 0.0 | 0.0 | 0.00 | 0.00 | 0.00 | 1011.0 | |
| 20260904061719 | 64 | 157 | 0.0 | 0.0 | 0.00 | 0.00 | 0.00 | 1011.1 | |
| 20260904061019 | 65 | 247 | 0.0 | 0.0 | 0.00 | 0.00 | 0.00 | 1010.8 | |
| 20260904060319 | 65 | 157 | 0.0 | 0.0 | 0.00 | 0.00 | 0.00 | 1010.6 | |
| 20260904060219 | 65 | 157 | 0.0 | 0.0 | 0.00 | 0.00 | 0.00 | 1010.7 | |
| 20260904060118 | 65 | 202 | 0.0 | 0.0 | 0.00 | 0.00 | 0.00 | 1010.7 | |
| 20260904060019 | 65 | 202 | 0.0 | 0.0 | 0.00 | 0.00 | 0.00 | 1010.5 | |
| 20260904055918 | 66 | 202 | 0.0 | 0.0 | 0.00 | 0.00 | 0.00 | 1010.8 | |
| 20260904055519 | 66 | 157 | 0.0 | 0.0 | 0.00 | 0.00 | 0.00 | 1010.8 | |
| 20260904055118 | 66 | 225 | 1.0 | 2.0 | 0.00 | 0.00 | 0.00 | 1010.7 | |
| 20260904054719 | 66 | 180 | 0.0 | 0.0 | 0.00 | 0.00 | 0.00 | 1010.8 | |
| 20260904054619 | 66 | 157 | 1.0 | 1.0 | 0.00 | 0.00 | 0.00 | 1010.7 | |
| 20260904054219 | 66 | 202 | 0.0 | 1.0 | 0.00 | 0.00 | 0.00 | 1010.7 | |
| 20260904054119 | 66 | 180 | 1.0 | 2.0 | 0.00 | 0.00 | 0.00 | 1010.9 | |
| 20260904054019 | 66 | 202 | 1.0 | 2.0 | 0.00 | 0.00 | 0.00 | 1010.8 | |
| 20260904053019 | 67 | 180 | 1.0 | 2.0 | 0.00 | 0.00 | 0.00 | 1010.8 | |
| 20260904052918 | 67 | 247 | 1.0 | 2.0 | 0.00 | 0.00 | 0.00 | 1010.7 | |
| 20260904052818 | 67 | 202 | 2.0 | 3.0 | 0.00 | 0.00 | 0.00 | 1010.7 | |
| 20260904052718 | 67 | 225 | 0.0 | 1.0 | 0.00 | 0.00 | 0.00 | 1010.8 | |
| 20260904052318 | 67 | 270 | 2.0 | 2.0 | 0.00 | 0.00 | 0.00 | 1010.7 | |
| 20260904052219 | 67 | 225 | 1.0 | 2.0 | 0.00 | 0.00 | 0.00 | 1010.8 | |
| 20260904051819 | 67 | 202 | 1.0 | 3.0 | 0.00 | 0.00 | 0.00 | 1010.7 | |
| 20260904051728 | 67 | 225 | 0.0 | 3.0 | 0.00 | 0.00 | 0.00 | 1010.6 | |
| 20260904051619 | 67 | 180 | 0.0 | 0.0 | 0.00 | 0.00 | 0.00 | 1010.7 | |
| 20260904051518 | 68 | 180 | 0.0 | 0.0 | 0.00 | 0.00 | 0.00 | 1010.9 | |
| 20260904050219 | 68 | 180 | 0.0 | 0.0 | 0.00 | 0.00 | 0.00 | 1010.8 | |
| 20260904050118 | 68 | 157 | 0.0 | 1.0 | 0.00 | 0.00 | 0.00 | 1010.9 | |
| 20260904050019 | 68 | 180 | 1.0 | 2.0 | 0.00 | 0.00 | 0.00 | 1010.7 | |
| 20260904045619 | 68 | 202 | 0.0 | 1.0 | 0.00 | 0.00 | 0.00 | 1010.7 | |
| 20260904045519 | 68 | 225 | 0.0 | 0.0 | 0.00 | 0.00 | 0.00 | 1010.7 | |
| 20260904045119 | 68 | 202 | 1.0 | 2.0 | 0.00 | 0.00 | 0.00 | 1010.7 | |
| 20260904044419 | 68 | 180 | 0.0 | 1.0 | 0.00 | 0.00 | 0.00 | 1010.4 | |
| 20260904042519 | 68 | 202 | 0.0 | 0.0 | 0.00 | 0.00 | 0.00 | 1010.6 | |
| 20260904042419 | 68 | 180 | 0.0 | 0.0 | 0.00 | 0.00 | 0.00 | 1010.4 | |
| 20260904042319 | 68 | 157 | 1.0 | 2.0 | 0.00 | 0.00 | 0.00 | 1010.7 | |
| 20260904041919 | 68 | 247 | 0.0 | 0.0 | 0.00 | 0.00 | 0.00 | 1010.5 | |
| 20260904041218 | 69 | 202 | 2.0 | 3.0 | 0.00 | 0.00 | 0.00 | 1010.4 | |
| 20260904041118 | 69 | 247 | 0.0 | 1.0 | 0.00 | 0.00 | 0.00 | 1010.5 | |
| 20260904041019 | 69 | 225 | 0.0 | 2.0 | 0.00 | 0.00 | 0.00 | 1010.3 | |
| 20260904040318 | 69 | 225 | 0.0 | 1.0 | 0.00 | 0.00 | 0.00 | 1010.4 | |
| 20260904040218 | 69 | 180 | 0.0 | 1.0 | 0.00 | 0.00 | 0.00 | 1010.4 | |
| 20260904040118 | 69 | 180 | 0.0 | 0.0 | 0.00 | 0.00 | 0.00 | 1010.3 | |
| 20260904035719 | 69 | 202 | 2.0 | 3.0 | 0.00 | 0.00 | 0.00 | 1010.4 | |
| 20260904035618 | 69 | 225 | 1.0 | 3.0 | 0.00 | 0.00 | 0.00 | 1010.3 | |
| 20260904035519 | 69 | 180 | 1.0 | 3.0 | 0.00 | 0.00 | 0.00 | 1010.3 | |
| 20260904035419 | 69 | 180 | 0.0 | 1.0 | 0.00 | 0.00 | 0.00 | 1010.4 | |
| 20260904035319 | 69 | 202 | 1.0 | 2.0 | 0.00 | 0.00 | 0.00 | 1010.4 | |
| 20260904035219 | 69 | 225 | 1.0 | 2.0 | 0.00 | 0.00 | 0.00 | 1010.5 | |
| 20260904034519 | 70 | 225 | 2.0 | 4.0 | 0.00 | 0.00 | 0.00 | 1010.1 | |
| 20260904032919 | 70 | 225 | 2.0 | 4.0 | 0.00 | 0.00 | 0.00 | 1009.7 | |
| 20260904032219 | 71 | 247 | 2.0 | 4.0 | 0.00 | 0.00 | 0.00 | 1009.7 | |
| 20260904032118 | 71 | 270 | 3.0 | 4.0 | 0.00 | 0.00 | 0.00 | 1009.8 | |
| 20260904032019 | 71 | 225 | 2.0 | 4.0 | 0.00 | 0.00 | 0.00 | 1009.7 | |
| 20260904030719 | 71 | 247 | 1.0 | 3.0 | 0.00 | 0.00 | 0.00 | 1009.7 | |
| 20260904030619 | 71 | 225 | 2.0 | 3.0 | 0.00 | 0.00 | 0.00 | 1009.7 | |
| 20260904025619 | 72 | 202 | 0.0 | 1.0 | 0.00 | 0.00 | 0.00 | 1009.7 | |
| 20260904025218 | 72 | 202 | 0.0 | 1.0 | 0.00 | 0.00 | 0.00 | 1009.7 | |
| 20260904024818 | 72 | 180 | 3.0 | 6.0 | 0.00 | 0.00 | 0.00 | 1009.9 | |
| 20260904024418 | 72 | 180 | 2.0 | 4.0 | 0.00 | 0.00 | 0.00 | 1009.7 | |
| 20260904024319 | 72 | 180 | 2.0 | 3.0 | 0.00 | 0.00 | 0.00 | 1009.8 | |
| 20260904023618 | 72 | 202 | 2.0 | 4.0 | 0.00 | 0.00 | 0.00 | 1009.7 | |
| 20260904023219 | 73 | 202 | 0.0 | 1.0 | 0.00 | 0.00 | 0.00 | 1009.8 | |
| 20260904023118 | 73 | 135 | 2.0 | 3.0 | 0.00 | 0.00 | 0.00 | 1009.8 | |
| 20260904023018 | 73 | 225 | 2.0 | 3.0 | 0.00 | 0.00 | 0.00 | 1009.7 | |
| 20260904022919 | 73 | 225 | 2.0 | 4.0 | 0.00 | 0.00 | 0.00 | 1009.8 | |
| 20260904022818 | 73 | 202 | 1.0 | 2.0 | 0.00 | 0.00 | 0.00 | 1009.7 | |
| 20260904021819 | 73 | 202 | 3.0 | 6.0 | 0.00 | 0.00 | 0.00 | 1009.6 | |
| 20260904021419 | 74 | 247 | 3.0 | 5.0 | 0.00 | 0.00 | 0.00 | 1009.5 | |
| 20260904014619 | 75 | 225 | 2.0 | 4.0 | 0.00 | 0.00 | 0.00 | 1009.6 | |
| 20260904013918 | 76 | 247 | 1.0 | 2.0 | 0.00 | 0.00 | 0.00 | 1009.9 | |
| 20260904013818 | 76 | 202 | 2.0 | 4.0 | 0.00 | 0.00 | 0.00 | 1009.8 | |
| 20260904013719 | 76 | 247 | 3.0 | 4.0 | 0.00 | 0.00 | 0.00 | 1009.5 | |
| 20260904013318 | 76 | 202 | 1.0 | 3.0 | 0.00 | 0.00 | 0.00 | 1009.7 | |
| 20260904012918 | 77 | 157 | 2.0 | 4.0 | 0.00 | 0.00 | 0.00 | 1009.7 | |
| 20260904012519 | 77 | 225 | 3.0 | 5.0 | 0.00 | 0.00 | 0.00 | 1009.5 | |
| 20260904011219 | 77 | 180 | 4.0 | 7.0 | 0.00 | 0.00 | 0.00 | 1009.4 | |
| 20260904011119 | 77 | 202 | 5.0 | 6.0 | 0.00 | 0.00 | 0.00 | 1009.6 | |
| 20260904011019 | 77 | 225 | 4.0 | 7.0 | 0.00 | 0.00 | 0.00 | 1009.4 | |
| 20260904010919 | 77 | 202 | 5.0 | 7.0 | 0.00 | 0.00 | 0.00 | 1009.6 | |
| 20260904010219 | 78 | 225 | 4.0 | 7.0 | 0.00 | 0.00 | 0.00 | 1009.7 | |
| 20260904005819 | 78 | 135 | 4.0 | 7.0 | 0.00 | 0.00 | 0.00 | 1009.6 | |
| 20260904005418 | 78 | 180 | 1.0 | 2.0 | 0.00 | 0.00 | 0.00 | 1009.7 | |
| 20260904005319 | 78 | 112 | 1.0 | 2.0 | 0.00 | 0.00 | 0.00 | 1009.4 | |
| 20260904005219 | 78 | 180 | 2.0 | 3.0 | 0.00 | 0.00 | 0.00 | 1009.7 | |
| 20260904005119 | 78 | 202 | 1.0 | 2.0 | 0.00 | 0.00 | 0.00 | 1009.4 | |
| 20260904004718 | 79 | 180 | 5.0 | 8.0 | 0.00 | 0.00 | 0.00 | 1009.4 | |
| 20260904004619 | 79 | 202 | 2.0 | 4.0 | 0.00 | 0.00 | 0.00 | 1009.4 | |
| 20260904004519 | 79 | 270 | 3.0 | 4.0 | 0.00 | 0.00 | 0.00 | 1009.4 | |
| 20260904004419 | 79 | 225 | 2.0 | 3.0 | 0.00 | 0.00 | 0.00 | 1009.7 | |
| 20260904004319 | 79 | 180 | 2.0 | 4.0 | 0.00 | 0.00 | 0.00 | 1009.5 | |
| 20260904003619 | 79 | 180 | 2.0 | 2.0 | 0.00 | 0.00 | 0.00 | 1009.5 | |
| 20260904002919 | 79 | 157 | 4.0 | 7.0 | 0.00 | 0.00 | 0.00 | 1009.7 | |
| 20260904002818 | 79 | 202 | 2.0 | 3.0 | 0.00 | 0.00 | 0.00 | 1009.6 | |
| 20260904002119 | 79 | 225 | 4.0 | 6.0 | 0.00 | 0.00 | 0.00 | 1009.4 | |
| 20260904002018 | 79 | 225 | 5.0 | 7.0 | 0.00 | 0.00 | 0.00 | 1009.4 | |
| 20260904001919 | 80 | 225 | 3.0 | 6.0 | 0.00 | 0.00 | 0.00 | 1009.4 | |
| 20260904001819 | 80 | 112 | 2.0 | 3.0 | 0.00 | 0.00 | 0.00 | 1009.6 | |
| 20260904001418 | 80 | 202 | 3.0 | 6.0 | 0.00 | 0.00 | 0.00 | 1009.6 | |
| 20260904000418 | 81 | 180 | 5.0 | 7.0 | 0.00 | 0.00 | 0.00 | 1009.7 | |
| 20260903235119 | 81 | 180 | 1.0 | 2.0 | 0.00 | 0.00 | 0.00 | 1009.5 | |
| 20260903234718 | 81 | 225 | 3.0 | 5.0 | 0.00 | 0.00 | 0.00 | 1009.4 | |
| 20260903233719 | 82 | 225 | 4.0 | 7.0 | 0.00 | 0.00 | 0.00 | 1009.6 | |
| 20260903233319 | 82 | 225 | 5.0 | 6.0 | 0.00 | 0.00 | 0.00 | 1009.7 | |
| 20260903233219 | 82 | 225 | 4.0 | 7.0 | 0.00 | 0.00 | 0.00 | 1009.6 | |
| 20260903232519 | 83 | 247 | 7.0 | 9.0 | 0.00 | 0.00 | 0.00 | 1009.8 | |
| 20260903232419 | 83 | 225 | 5.0 | 9.0 | 0.00 | 0.00 | 0.00 | 1009.8 | |
| 20260903231718 | 83 | 225 | 4.0 | 5.0 | 0.00 | 0.00 | 0.00 | 1009.7 | |
| 20260903231319 | 84 | 225 | 8.0 | 12.0 | 0.00 | 0.00 | 0.00 | 1009.5 | |
| 20260903230619 | 86 | 202 | 4.0 | 6.0 | 0.00 | 0.00 | 0.00 | 1009.9 | |
| 20260903230519 | 86 | 180 | 2.0 | 4.0 | 0.00 | 0.00 | 0.00 | 1009.8 | |
| 20260903230419 | 86 | 180 | 1.0 | 2.0 | 0.00 | 0.00 | 0.00 | 1009.7 | |
| 20260903230019 | 88 | 202 | 6.0 | 10.0 | 0.00 | 0.00 | 0.00 | 1009.9 | |
| 20260903225919 | 88 | 202 | 1.0 | 2.0 | 0.00 | 0.00 | 0.00 | 1009.9 | |
| 20260903225819 | 88 | 112 | 1.0 | 2.0 | 0.00 | 0.00 | 0.00 | 1009.9 | |
| 20260903225719 | 88 | 225 | 3.0 | 6.0 | 0.00 | 0.00 | 0.00 | 1009.9 | |
| 20260903225619 | 88 | 225 | 2.0 | 4.0 | 0.00 | 0.00 | 0.00 | 1009.9 | |
| 20260903225519 | 89 | 202 | 4.0 | 7.0 | 0.00 | 0.00 | 0.00 | 1010.0 | |
| 20260903225118 | 89 | 157 | 2.0 | 2.0 | 0.00 | 0.00 | 0.00 | 1009.9 | |
| 20260903224718 | 89 | 157 | 2.0 | 3.0 | 0.00 | 0.00 | 0.00 | 1009.8 | |
| 20260903224319 | 90 | 202 | 5.0 | 9.0 | 0.00 | 0.00 | 0.00 | 1009.9 | |
| 20260903223619 | 90 | 180 | 2.0 | 4.0 | 0.00 | 0.00 | 0.00 | 1009.9 | |
| 20260903223519 | 90 | 315 | 1.0 | 3.0 | 0.00 | 0.00 | 0.00 | 1009.9 | |
| 20260903223118 | 90 | 45 | 1.0 | 4.0 | 0.00 | 0.00 | 0.00 | 1010.2 | |
| 20260903223018 | 90 | 157 | 2.0 | 3.0 | 0.00 | 0.00 | 0.00 | 1010.3 | |
| 20260903222918 | 90 | 202 | 6.0 | 11.0 | 0.00 | 0.00 | 0.00 | 1010.1 | |
| 20260903220419 | 88 | 247 | 4.0 | 7.0 | 0.00 | 0.00 | 0.00 | 1010.3 | |
| 20260903220019 | 89 | 180 | 2.0 | 3.0 | 0.00 | 0.00 | 0.00 | 1010.4 | |
| 20260903215618 | 88 | 90 | 1.0 | 3.0 | 0.00 | 0.00 | 0.00 | 1010.5 | |
| 20260903215519 | 88 | 225 | 6.0 | 9.0 | 0.00 | 0.00 | 0.00 | 1010.5 | |
| 20260903215118 | 89 | 202 | 4.0 | 6.0 | 0.00 | 0.00 | 0.00 | 1010.5 | |
| 20260903215019 | 90 | 202 | 5.0 | 7.0 | 0.00 | 0.00 | 0.00 | 1010.6 | |
| 20260903214919 | 90 | 225 | 6.0 | 8.0 | 0.00 | 0.00 | 0.00 | 1010.6 | |
| 20260903214819 | 90 | 292 | 3.0 | 6.0 | 0.00 | 0.00 | 0.00 | 1010.4 | |
| 20260903214718 | 90 | 112 | 1.0 | 2.0 | 0.00 | 0.00 | 0.00 | 1010.6 | |
| 20260903214018 | 92 | 157 | 2.0 | 4.0 | 0.00 | 0.00 | 0.00 | 1010.4 | |
| 20260903213919 | 92 | 202 | 3.0 | 7.0 | 0.00 | 0.00 | 0.00 | 1010.5 | |
| 20260903213818 | 93 | 225 | 5.0 | 8.0 | 0.00 | 0.00 | 0.00 | 1010.5 | |
| 20260903213719 | 93 | 180 | 2.0 | 4.0 | 0.00 | 0.00 | 0.00 | 1010.6 | |
| 20260903213319 | 91 | 225 | 2.0 | 5.0 | 0.00 | 0.00 | 0.00 | 1010.4 | |
| 20260903213219 | 91 | 157 | 2.0 | 5.0 | 0.00 | 0.00 | 0.00 | 1010.6 | |
| 20260903212818 | 89 | 157 | 3.0 | 5.0 | 0.00 | 0.00 | 0.00 | 1010.6 |